Location: Camp Creek
(33.9000°N, 111.8167°W)
Time: 14:05:01
(UTC-07:00)

DELTA 2 R/B (1) - Visible Passes

Search period start: 31 January 2015 00:00
Search period end: 10 February 2015 00:00
Orbit: 792 x 803 km, 39.6° (Epoch: 30 January)

Date Brightness Start Highest point End Pass type
(mag) Time Alt. Az. Time Alt. Az. Time Alt. Az.
02 Feb 5.2 06:52:03 10° SSW 06:57:01 35° SE 07:02:02 10° E visible
03 Feb 5.2 06:21:33 10° SSW 06:26:23 32° SE 06:31:17 10° E visible
04 Feb 5.3 05:51:03 10° SSW 05:55:45 29° SE 06:00:32 10° E visible
05 Feb 5.3 05:21:22 13° SSW 05:25:07 27° SE 05:29:44 10° E visible
06 Feb 5.3 04:53:09 22° SSE 04:54:30 24° SE 04:58:57 10° E visible
06 Feb 3.6 06:35:01 10° WSW 06:40:34 86° SSE 06:46:09 10° ENE visible
07 Feb 5.6 04:24:46 22° SE 04:24:46 22° SE 04:28:08 10° E visible
07 Feb 3.6 06:05:35 17° WSW 06:09:54 81° SSE 06:15:29 10° ENE visible
08 Feb 6.2 03:56:13 14° ESE 03:56:13 14° ESE 03:57:17 10° E visible
08 Feb 3.6 05:37:01 37° SW 05:39:14 76° SSE 05:44:48 10° ENE visible
09 Feb 3.6 05:08:19 69° S 05:08:35 71° SSE 05:14:07 10° ENE visible
09 Feb 3.9 06:49:48 10° W 06:55:13 53° N 07:00:39 10° ENE visible
